• In Austria
  • List of Countries
  • For 7 days
  • Water Temperature
  • Satellite Maps
  • Weather Map
  • News
  • Weather Widgets
  • user-avatar
    Login

    Hourly Weather Zelenaya Niva

    Today, 20 August, Monday

    Time Temperature Precipitation Wind Pressure Humidity
    00:00 +16°C° 0 mm 2 mps 746 mmHg 95%
    01:00 +16°C° 0 mm 2 mps 746 mmHg 95%
    02:00 +16°C° 0 mm 2 mps 746 mmHg 95%
    03:00 +16°C° 0 mm 2 mps 746 mmHg 95%
    04:00 +16°C° 0 mm 2 mps 746 mmHg 96%
    05:00 +16°C° 0 mm 2 mps 746 mmHg 97%
    06:00 +17°C° 0 mm 2 mps 746 mmHg 93%
    07:00 +18°C° 0 mm 2 mps 746 mmHg 90%
    08:00 +19°C° 0 mm 3 mps 746 mmHg 87%
    09:00 +20°C° 0.3 mm 3 mps 746 mmHg 85%
    10:00 +20°C° 0.3 mm 3 mps 746 mmHg 83%
    11:00 +21°C° 0.3 mm 3 mps 746 mmHg 81%
    12:00 +21°C° 0.7 mm 3 mps 745 mmHg 83%
    13:00 +21°C° 0.7 mm 3 mps 745 mmHg 85%
    14:00 +21°C° 0.7 mm 3 mps 745 mmHg 86%
    15:00 +21°C° 0.5 mm 2 mps 744 mmHg 87%
    16:00 +21°C° 0.5 mm 2 mps 744 mmHg 88%
    17:00 +20°C° 0.5 mm 2 mps 743 mmHg 89%
    18:00 +20°C° 0.1 mm 2 mps 743 mmHg 91%
    19:00 +19°C° 0.1 mm 2 mps 743 mmHg 93%
    20:00 +18°C° 0.1 mm 2 mps 743 mmHg 95%
    21:00 +18°C° 0.1 mm 2 mps 742 mmHg 95%
    22:00 +18°C° 0.1 mm 3 mps 742 mmHg 95%
    23:00 +18°C° 0.1 mm 3 mps 741 mmHg 95%

    Tomorrow, 21 August, Tuesday

    Time Temperature Precipitation Wind Pressure Humidity
    00:00 +18°C° 0 mm 4 mps 740 mmHg 95%
    01:00 +18°C° 0 mm 4 mps 740 mmHg 95%
    02:00 +18°C° 0 mm 4 mps 739 mmHg 95%
    03:00 +18°C° 0.1 mm 4 mps 739 mmHg 95%
    04:00 +17°C° 0.1 mm 5 mps 738 mmHg 94%
    05:00 +17°C° 0.1 mm 5 mps 737 mmHg 94%
    06:00 +17°C° 0.5 mm 5 mps 737 mmHg 93%
    07:00 +17°C° 0.5 mm 5 mps 737 mmHg 92%
    08:00 +17°C° 0.5 mm 6 mps 737 mmHg 91%
    09:00 +19°C° 0.4 mm 6 mps 737 mmHg 85%
    10:00 +19°C° 0.4 mm 6 mps 737 mmHg 80%
    11:00 +19°C° 0.4 mm 6 mps 737 mmHg 75%
    12:00 +19°C° 0.3 mm 6 mps 738 mmHg 73%
    13:00 +19°C° 0.3 mm 6 mps 738 mmHg 70%
    14:00 +17°C° 0.3 mm 7 mps 739 mmHg 67%
    15:00 +17°C° 0 mm 6 mps 739 mmHg 69%
    16:00 +16°C° 0 mm 5 mps 740 mmHg 70%
    17:00 +15°C° 0 mm 5 mps 740 mmHg 71%
    18:00 +14°C° 0 mm 4 mps 741 mmHg 77%
    19:00 +13°C° 0 mm 4 mps 741 mmHg 82%
    20:00 +12°C° 0 mm 3 mps 742 mmHg 87%
    21:00 +12°C° 0 mm 3 mps 742 mmHg 88%
    22:00 +11°C° 0 mm 3 mps 742 mmHg 89%
    23:00 +11°C° 0 mm 4 mps 743 mmHg 89%

    Day after tomorrow, 22 August, Wednesday

    Time Temperature Precipitation Wind Pressure Humidity
    00:00 +11°C° 0 mm 4 mps 743 mmHg 90%
    01:00 +10°C° 0 mm 4 mps 743 mmHg 90%
    02:00 +10°C° 0 mm 4 mps 744 mmHg 90%
    03:00 +10°C° 0 mm 4 mps 744 mmHg 90%
    04:00 +8°C° 0 mm 4 mps 745 mmHg 91%
    05:00 +8°C° 0 mm 4 mps 745 mmHg 91%
    06:00 +10°C° 0 mm 4 mps 746 mmHg 82%
    07:00 +10°C° 0 mm 5 mps 746 mmHg 73%
    08:00 +13°C° 0 mm 5 mps 747 mmHg 64%
    09:00 +13°C° 0 mm 5 mps 747 mmHg 58%
    10:00 +14°C° 0 mm 5 mps 747 mmHg 52%
    11:00 +15°C° 0 mm 5 mps 748 mmHg 47%
    12:00 +16°C° 0 mm 5 mps 748 mmHg 46%
    13:00 +16°C° 0 mm 5 mps 748 mmHg 44%
    14:00 +17°C° 0 mm 5 mps 748 mmHg 43%
    15:00 +17°C° 0 mm 4 mps 749 mmHg 46%
    16:00 +17°C° 0 mm 4 mps 749 mmHg 50%
    17:00 +17°C° 0 mm 3 mps 749 mmHg 53%
    18:00 +14°C° 0 mm 3 mps 750 mmHg 60%
    19:00 +13°C° 0 mm 2 mps 750 mmHg 67%
    20:00 +10°C° 0 mm 2 mps 750 mmHg 73%
    21:00 +10°C° 0 mm 2 mps 751 mmHg 76%
    22:00 +9°C° 0 mm 2 mps 751 mmHg 79%
    23:00 +8°C° 0 mm 2 mps 751 mmHg 81%

    23 August, Thursday

    Time Temperature Precipitation Wind Pressure Humidity
    00:00 +8°C° 0 mm 2 mps 752 mmHg 83%
    01:00 +8°C° 0 mm 2 mps 752 mmHg 84%
    02:00 +7°C° 0 mm 2 mps 752 mmHg 85%
    03:00 +7°C° 0 mm 2 mps 752 mmHg 85%
    04:00 +7°C° 0 mm 2 mps 752 mmHg 86%
    05:00 +7°C° 0 mm 2 mps 752 mmHg 86%
    06:00 +9°C° 0 mm 2 mps 752 mmHg 78%
    07:00 +13°C° 0 mm 2 mps 752 mmHg 71%
    08:00 +14°C° 0 mm 3 mps 752 mmHg 63%
    09:00 +16°C° 0 mm 3 mps 752 mmHg 58%
    10:00 +18°C° 0 mm 3 mps 752 mmHg 54%
    11:00 +19°C° 0 mm 3 mps 752 mmHg 49%
    12:00 +20°C° 0 mm 4 mps 752 mmHg 48%
    13:00 +21°C° 0 mm 4 mps 751 mmHg 47%
    14:00 +21°C° 0 mm 4 mps 751 mmHg 47%
    15:00 +21°C° 0 mm 3 mps 751 mmHg 51%
    16:00 +20°C° 0 mm 3 mps 751 mmHg 55%
    17:00 +20°C° 0 mm 2 mps 750 mmHg 59%
    18:00 +18°C° 0 mm 2 mps 751 mmHg 65%
    19:00 +16°C° 0 mm 2 mps 751 mmHg 71%
    20:00 +14°C° 0 mm 2 mps 751 mmHg 78%
    21:00 +13°C° 0 mm 2 mps 751 mmHg 80%
    22:00 +12°C° 0 mm 2 mps 751 mmHg 82%
    23:00 +12°C° 0 mm 2 mps 751 mmHg 84%

    24 August, Friday

    Time Temperature Precipitation Wind Pressure Humidity
    00:00 +10°C° 0 mm 2 mps 751 mmHg 86%
    01:00 +10°C° 0 mm 2 mps 751 mmHg 88%
    02:00 +10°C° 0 mm 2 mps 751 mmHg 90%
    03:00 +9°C° 0 mm 2 mps 751 mmHg 91%
    04:00 +9°C° 0 mm 2 mps 751 mmHg 92%
    05:00 +9°C° 0 mm 2 mps 751 mmHg 94%
    06:00 +12°C° 0 mm 2 mps 751 mmHg 86%
    07:00 +14°C° 0 mm 2 mps 751 mmHg 78%
    08:00 +16°C° 0 mm 2 mps 751 mmHg 71%
    09:00 +18°C° 0 mm 3 mps 751 mmHg 64%
    10:00 +19°C° 0 mm 3 mps 751 mmHg 58%
    11:00 +21°C° 0 mm 3 mps 751 mmHg 52%
    12:00 +22°C° 0 mm 3 mps 750 mmHg 51%
    13:00 +22°C° 0 mm 3 mps 750 mmHg 49%
    14:00 +24°C° 0 mm 3 mps 750 mmHg 48%
    15:00 +23°C° 0 mm 2 mps 750 mmHg 53%
    16:00 +23°C° 0 mm 2 mps 750 mmHg 57%
    17:00 +21°C° 0 mm 2 mps 749 mmHg 62%
    18:00 +19°C° 0 mm 2 mps 749 mmHg 69%
    19:00 +17°C° 0 mm 2 mps 749 mmHg 76%
    20:00 +15°C° 0 mm 2 mps 749 mmHg 83%
    21:00 +15°C° 0 mm 2 mps 750 mmHg 85%
    22:00 +14°C° 0 mm 2 mps 750 mmHg 86%
    23:00 +13°C° 0 mm 2 mps 750 mmHg 88%

    25 August, Saturday

    Time Temperature Precipitation Wind Pressure Humidity
    00:00 +13°C° 0 mm 2 mps 750 mmHg 89%
    01:00 +12°C° 0 mm 2 mps 750 mmHg 90%
    02:00 +12°C° 0 mm 2 mps 750 mmHg 91%
    03:00 +12°C° 0 mm 2 mps 750 mmHg 92%
    04:00 +12°C° 0 mm 2 mps 750 mmHg 92%
    05:00 +10°C° 0 mm 2 mps 750 mmHg 92%
    06:00 +13°C° 0 mm 2 mps 750 mmHg 84%
    07:00 +15°C° 0 mm 2 mps 749 mmHg 76%
    08:00 +17°C° 0 mm 3 mps 749 mmHg 67%
    09:00 +19°C° 0 mm 3 mps 749 mmHg 61%
    10:00 +21°C° 0 mm 3 mps 749 mmHg 55%
    11:00 +23°C° 0 mm 4 mps 749 mmHg 48%
    12:00 +23°C° 0 mm 4 mps 749 mmHg 47%
    13:00 +25°C° 0 mm 4 mps 748 mmHg 46%
    14:00 +25°C° 0 mm 4 mps 748 mmHg 45%
    15:00 +24°C° 0 mm 3 mps 748 mmHg 50%
    16:00 +24°C° 0 mm 3 mps 748 mmHg 55%
    17:00 +23°C° 0 mm 2 mps 747 mmHg 60%
    18:00 +20°C° 0 mm 2 mps 747 mmHg 66%
    19:00 +18°C° 0 mm 2 mps 747 mmHg 73%
    20:00 +16°C° 0 mm 2 mps 747 mmHg 79%
    21:00 +16°C° 0 mm 2 mps 747 mmHg 80%
    22:00 +15°C° 0 mm 2 mps 747 mmHg 81%
    23:00 +15°C° 0 mm 2 mps 747 mmHg 82%
    Show more